Regional Weather Roundup
Issued by NWS

Home | Current Version | Previous Version | Text Only | Print | Product List | Glossary On
Versions: 1 2 3 4 5 6 7 8 9 10 11 12 13 14 15 16 17 18 19 20 21 22 23 24 25 26 27 28 29 30 31 32 33 34 35 36 37 38 39 40 41 42 43 44 45 46 47 48 49 50
990
ASCA44 KEWX 251720
RWRMX

LATIN AMERICA AND CARIBBEAN REGIONAL WEATHER ROUNDUP
NATIONAL WEATHER SERVICE AUSTIN/SAN ANTONIO TX
1200 PM CDT SAT MAR 25 2017

NOTE: "FAIR" INDICATED FEW OR NO CLOUDS BELOW 12,000 FEET WITH NO
SIGNIFICANT WEATHER AND/OR OBSTRUCTIONS TO VISIBILITY.

BAJA CALIFORNIA

CITY           SKY/WX    TMP DP  RH WIND       PRES   REMARKS
LORETO         SUNNY     75  59  57 CALM      29.99S
LA PAZ         SUNNY     75  37  25 N7        30.04S
MEXICALI       SUNNY     75  16  10 W16       30.01F
S.J. DEL CABO  SUNNY     81  21  11 NW12      30.03S
TIJUANA        PTSUNNY   59  48  67 N6        30.17F

NORTHWESTERN MEXICO

CITY           SKY/WX    TMP DP  RH WIND       PRES   REMARKS
CULIACAN       SUNNY     75  61  60 CALM      29.98S
DURANGO        SUNNY     66  12  12 W3        30.32S
GUAYMAS        SUNNY     81  46  30 CALM      29.93S
HERMOSILLO     SUNNY     77  39  25 CALM      30.00F
CD. JUAREZ     MOSUNNY   63  30  29 SE8       30.09S
LOS MOCHIS     SUNNY     73  46  38 N9        29.99S
OBREGON        SUNNY     79  30  17 CALM      29.95S

NORTHEASTERN MEXICO

CITY           SKY/WX    TMP DP  RH WIND       PRES   REMARKS
CHIHUAHUA      SUNNY     70  21  16 CALM      30.19F
MATAMOROS      MOSUNNY   82  68  61 S9        30.03S
MONCLOVA       SUNNY     73  23  15 NE9       30.14
MONTERREY      SUNNY     84  59  42 W6        30.04F
NUEVO LAREDO   SUNNY     73  55  53 NW8       30.08S
PIEDRAS NEGRAS SUNNY     73  45  35 N12       30.14S
REYNOSA        MOSUNNY   79  63  57 E6        30.03S
SALTILLO       SUNNY     79  34  19 CALM      30.27S
TORREON        SUNNY     75   9   7 CALM      30.19S
CD. VICTORIA   SUNNY     81  64  57 N2        30.05S

WESTERN MEXICO

CITY           SKY/WX    TMP DP  RH WIND       PRES   REMARKS
AGUASCALIENTES SUNNY     73  27  17 N3        30.31S
COLIMA         MOSUNNY   77  66  69 CALM      30.10F
DEL BAJIO      SUNNY     75  43  31 S8        30.32F
GUADALAJARA    SUNNY     73  41  31 W3        30.25S
MANZANILLO     MOSUNNY   86  73  66 CALM      29.99S HX  93
MAZATLAN       SUNNY     79  63  57 S6        30.04S
P. VALLARTA    SUNNY     79  64  61 SW5       29.99S
URUAPAN        SUNNY     70  55  60 S9        30.13F
ZACATECAS      SUNNY     72  16  12 E12       30.35

CENTRAL MEXICO

CITY           SKY/WX    TMP DP  RH WIND       PRES   REMARKS
CUERNAVACA     MOSUNNY   79  54  41 SE7       30.17F
MEXICO CITY    SUNNY     72  39  30 N7        30.36F
MORELIA        SUNNY     73  54  49 W5        30.27F
POZA RICA      PTSUNNY   81  70  69 N12       30.07S FOG
PUEBLA         MOSUNNY   72  39  30 CALM      30.35F
QUERETARO      SUNNY     75  45  33 E6        30.33F
S. LUIS POTOSI SUNNY     72  36  26 CALM      30.29F
TAMPICO        PTSUNNY   79  68  69 MISG      30.03F
TOLUCA         SUNNY     63  45  51 W7        30.44F

SOUTHERN MEXICO

CITY           SKY/WX    TMP DP  RH WIND       PRES   REMARKS
ACAPULCO       SUNNY     84  73  70 W9        29.98S HX  91
B. DE HUATULCO SUNNY     86  68  54 W17       30.02
OAXACA         MOSUNNY   73  50  43 S6        30.26F
P. ESCONDIDO   SUNNY     84  72  65 W12       30.06F
VERACRUZ       MOSUNNY   81  72  74 E3        30.01S
ZIHUATANEJO    SUNNY     88  73  62 SW8       29.98F HX  96

YUCATAN PENINSULA

CITY           SKY/WX    TMP DP  RH WIND       PRES   REMARKS
CAMPECHE       SUNNY     86  61  42 E12G23    29.99F
CANCUN         PTSUNNY   82  68  61 SE14      30.09S
CHETUMAL       MOSUNNY   82  64  54 SE12      30.05F
CD. DEL CARMEN SUNNY     84  66  54 SE17      30.00S
COZUMEL        MOSUNNY   82  66  57 E9        30.07R
MERIDA         MOSUNNY   88  57  35 E14       30.05F
MINATITLAN       N/A    N/A N/A N/A MISG        N/A
TAPACHULA      SUNNY     90  63  40 CALM      29.97S HX  90
TUX. GUTIERREZ MOSUNNY   82  61  47 NW6       30.03F
VILLAHERMOSA   SUNNY     84  64  51 CALM      30.00F

CENTRAL AMERICA

CITY           SKY/WX    TMP DP  RH WIND       PRES   REMARKS
BELIZE CITY    MOSUNNY   82  70  65 SE7       30.04F
MANAGUA        MOSUNNY   90  63  40 E9        29.92F HX  90

CARIBBEAN

CITY           SKY/WX    TMP DP  RH WIND       PRES   REMARKS
ARUBA          MOSUNNY   84  73  70 E10       29.92S HX  91
CURACAO        MOSUNNY   81  75  83 E10       29.92F
KINGSTON       MOSUNNY   82  70  65 SW9       29.94F
NASSAU         PTSUNNY   81  55  41 NE16      30.19S
SAN JUAN       PTSUNNY   82  72  69 SE14G22   29.94F
SANTO DOMINGO  PTSUNNY   86  73  66 N9        29.92F HX  93
ST. CROIX      PTSUNNY   81  73  78 SE8       29.97F
ST. KITTS      MOSUNNY   84  72  65 E14       29.97F
ST. MAARTEN    MOSUNNY   81  72  74 SE16      29.97F
ST. THOMAS     CLOUDY    79  73  83 SE17      29.96S

$$





USA.gov is the U.S. government's official web portal to all federal, state and local government web resources and services.